Location: Laura�t
(43.9341°N, 0.2497°E)
Time: 22:43:26
(UTC+00:00)

Cosmos 1500 - Pass Details

Date: 03 March 2021
Orbit: 499 x 517 km, 82.5° (Epoch: 17 April)

Event Time Altitude Azimuth Distance (km) Brightness Sun altitude
Rises 18:46:13 0° 176° (S) 2,578 6.7 -10.9°
Reaches altitude 10° 18:48:20 10° 171° (S) 1,699 5.7 -11.3°
Maximum altitude 18:51:58 52° 95° (E) 624 3.2 -11.9°
Drops below altitude 10° 18:55:37 10° 18° (NNE) 1,713 5.7 -12.6°
Sets 18:57:46 0° 14° (NNE) 2,603 6.7 -13.0°
